Date,TemperatureHighF,TemperatureAvgF,TemperatureLowF,DewpointHighF,DewpointAvgF,DewpointLowF,HumidityHigh,HumidityAvg,HumidityLow,PressureMaxIn,PressureMinIn,WindSpeedMaxMPH,WindSpeedAvgMPH,GustSpeedMaxMPH,PrecipitationSumIn
2013-1-1,37.3,33.7,26.0,36.0,31.8,22.0,97,92,81,30.35,30.14,13,6,0,0.00
2013-1-2,36.0,28.1,21.1,28.0,22.6,18.0,92,80,58,30.39,30.30,11,1,0,0.00
2013-1-3,42.8,32.1,24.5,30.0,26.1,23.0,94,80,53,30.52,30.35,6,1,0,0.00
2013-1-4,45.3,34.7,26.5,30.0,25.5,23.0,94,72,44,30.57,30.43,8,1,0,0.00
2013-1-5,48.3,39.5,31.4,34.0,31.2,27.0,93,74,54,30.43,30.27,8,1,0,0.00
2013-1-6,45.0,37.9,29.2,33.0,28.9,23.0,88,71,47,30.46,30.28,17,6,0,0.00
2013-1-7,49.2,35.2,23.9,31.0,26.5,22.0,100,74,43,30.50,30.27,9,2,0,0.00
2013-1-8,57.1,44.0,30.1,43.0,34.1,27.0,93,70,48,30.31,30.18,9,1,0,0.01
2013-1-9,57.3,50.7,45.3,49.0,43.8,39.0,95,79,58,30.45,30.30,6,1,0,0.02
2013-1-10,56.6,49.6,44.4,56.0,47.7,40.0,97,93,76,30.37,29.89,7,1,0,0.06
2013-1-11,65.3,53.8,44.7,51.0,47.5,43.0,96,81,56,30.00,29.88,10,2,0,0.00
2013-1-12,58.0,49.3,33.8,54.0,46.4,32.0,96,90,77,29.98,29.81,20,5,0,1.32
2013-1-13,34.5,29.6,22.0,33.0,25.8,19.0,93,86,72,30.46,29.96,21,11,0,0.00
2013-1-14,30.0,23.5,17.9,19.0,16.7,15.0,92,76,57,30.60,30.45,13,5,0,0.00
2013-1-15,29.8,24.3,19.2,24.0,19.1,15.0,88,80,70,30.46,30.24,12,5,0,0.00
2013-1-16,43.2,31.3,21.8,27.0,21.6,18.0,90,70,36,30.32,30.19,10,2,0,0.00
2013-1-17,43.0,37.1,30.9,35.0,28.8,24.0,85,73,60,30.59,30.26,20,5,0,0.00
2013-1-18,58.0,39.9,25.6,35.0,28.1,24.0,95,67,32,30.62,30.31,9,2,0,0.00
2013-1-19,65.3,48.6,32.4,37.0,32.6,26.0,87,56,31,30.31,30.13,9,2,0,0.00
2013-1-20,54.8,44.7,35.5,36.0,30.8,24.0,83,60,37,30.36,30.23,9,2,0,0.00
2013-1-21,37.9,30.7,24.7,22.0,16.4,13.0,68,56,42,30.48,30.32,14,8,0,0.00
2013-1-22,36.5,29.1,22.5,20.0,16.8,13.0,79,61,46,30.50,30.38,7,2,0,0.00
2013-1-23,58.2,37.8,22.9,40.0,28.6,18.0,84,71,46,30.42,30.23,9,1,0,0.00
2013-1-24,40.6,33.0,29.3,34.0,18.1,12.0,76,55,44,30.52,30.29,12,5,0,0.00
2013-1-25,47.4,37.4,29.5,35.0,29.3,20.0,86,73,59,30.34,30.22,9,2,0,0.00
2013-1-26,57.1,43.6,31.2,34.0,30.3,26.0,96,64,30,30.41,30.30,9,1,0,0.00
2013-1-27,55.8,46.6,42.1,54.0,42.1,33.0,96,85,66,30.32,30.07,9,2,0,0.02
2013-1-28,74.8,66.6,55.5,63.0,60.3,54.0,95,81,61,30.08,29.93,25,4,0,0.00
2013-1-29,66.4,61.7,52.9,63.0,59.2,52.0,97,91,82,29.93,29.48,19,6,0,0.94
2013-1-30,52.8,39.3,29.1,52.0,34.2,22.0,97,82,70,30.11,29.51,26,10,0,0.18
2013-1-31,49.5,32.5,22.7,30.0,22.4,12.0,84,68,47,30.49,30.10,28,8,0,0.00
2013-2-1,37.4,24.7,13.5,18.0,9.5,4.0,76,55,33,30.62,30.36,20,5,0,0.00
2013-2-2,52.5,39.1,25.9,34.0,26.6,18.0,78,62,47,30.37,30.23,13,3,0,0.00
2013-2-3,53.2,45.2,38.1,32.0,27.3,23.0,77,52,32,30.32,30.11,27,6,0,0.00
2013-2-4,56.8,46.0,40.3,48.0,38.9,26.0,95,77,54,30.10,29.91,15,2,0,0.15
2013-2-5,64.0,46.8,31.7,44.0,35.6,30.0,97,70,36,30.15,30.00,13,2,0,0.00
2013-2-6,56.5,46.5,34.6,39.0,35.6,32.0,90,67,47,30.29,30.10,10,2,0,0.00
2013-2-7,63.9,51.5,44.2,54.0,46.2,39.0,96,82,64,30.10,29.92,20,3,0,0.27
2013-2-8,49.8,41.6,35.5,43.0,34.1,31.0,87,75,54,30.38,30.10,21,7,0,0.00
2013-2-9,41.0,36.3,31.4,37.0,32.5,29.0,91,86,74,30.39,30.05,9,2,0,0.00
2013-2-10,67.5,52.6,39.5,58.0,39.4,28.0,97,68,26,30.06,29.71,24,4,0,0.53
2013-2-11,55.6,45.0,37.1,32.0,28.5,26.0,74,54,36,30.24,30.06,19,4,0,0.00
2013-2-12,48.4,39.2,29.2,36.0,30.6,27.0,93,74,47,30.22,29.97,11,2,0,0.05
2013-2-13,51.7,41.8,34.5,40.0,34.6,32.0,96,78,49,30.09,29.98,13,3,0,0.05
2013-2-14,58.2,47.5,36.2,36.0,34.0,32.0,91,62,43,30.18,30.02,11,3,0,0.00
2013-2-15,45.6,39.4,30.7,33.0,23.9,14.0,72,55,34,30.36,30.18,19,10,0,0.00
2013-2-16,39.8,33.2,25.5,21.0,16.9,14.0,82,53,36,30.41,30.27,16,4,0,0.00
2013-2-17,60.8,45.9,33.4,37.0,26.8,18.0,71,49,30,30.26,29.98,11,3,0,0.00
2013-2-18,53.8,49.4,38.0,50.0,42.2,30.0,92,76,61,30.10,29.70,30,8,0,0.20
2013-2-19,45.1,36.9,29.7,30.0,20.5,15.0,76,54,30,30.39,30.11,24,9,0,0.00
2013-2-20,35.3,31.0,27.1,23.0,14.2,10.0,74,51,39,30.45,30.27,8,2,0,0.00
2013-2-21,33.3,30.6,27.9,32.0,27.5,17.0,95,88,58,30.28,29.88,12,2,0,0.98
2013-2-22,35.8,32.5,28.7,33.0,29.1,25.0,95,87,76,30.20,29.93,8,1,0,0.00
2013-2-23,43.3,33.2,24.3,31.0,25.1,22.0,91,74,47,30.20,30.06,9,2,0,0.00
2013-2-24,54.6,40.5,27.7,35.0,31.0,26.0,95,72,45,30.18,30.01,7,2,0,0.00
2013-2-25,54.9,43.0,37.3,40.0,33.7,28.0,94,72,41,30.01,29.43,12,4,0,0.97
2013-2-26,40.2,37.0,34.0,39.0,34.5,31.0,96,90,82,29.91,29.37,20,6,0,0.20
2013-2-27,41.4,37.1,35.2,32.0,29.8,27.0,83,75,62,30.09,29.86,28,10,0,0.00
2013-2-28,39.8,34.8,31.2,30.0,27.5,26.0,84,75,64,30.26,30.08,19,10,0,0.00
2013-3-1,33.5,31.8,29.2,28.0,26.1,24.0,87,79,72,30.31,30.21,16,8,0,0.00
2013-3-2,35.8,30.8,27.8,28.0,21.1,17.0,92,68,52,30.39,30.30,21,10,0,0.00
2013-3-3,52.8,37.3,23.4,29.0,24.4,20.0,92,64,34,30.33,30.03,14,3,0,0.00
2013-3-4,55.0,46.5,37.6,47.0,38.7,27.0,90,75,65,30.02,29.76,9,3,0,0.00
2013-3-5,45.3,40.3,33.3,43.0,29.7,21.0,93,68,43,30.32,29.82,32,14,0,0.03
2013-3-6,47.3,37.5,30.0,31.0,23.8,20.0,79,59,40,30.48,30.32,20,6,0,0.00
2013-3-7,58.7,44.1,33.3,34.0,30.3,25.0,82,61,34,30.44,30.30,8,2,0,0.00
2013-3-8,57.4,46.4,34.7,37.0,34.0,31.0,88,64,43,30.43,30.23,12,2,0,0.00
2013-3-9,73.6,59.2,47.5,55.0,42.0,35.0,84,55,25,30.22,29.82,15,5,0,0.01
2013-3-10,61.4,51.4,38.7,56.0,48.2,33.0,97,89,68,29.93,29.70,20,6,0,1.49
2013-3-11,44.3,37.0,31.5,34.0,28.6,25.0,91,73,51,30.13,29.92,16,6,0,0.00
2013-3-12,57.1,43.6,29.9,32.0,28.4,25.0,91,59,31,30.37,30.12,20,6,0,0.00
2013-3-13,51.0,40.7,31.8,31.0,23.9,19.0,74,53,29,30.53,30.36,20,7,0,0.00
2013-3-14,73.3,51.9,31.2,40.0,33.5,29.0,92,56,27,30.48,30.17,14,2,0,0.00
2013-3-15,82.9,66.5,46.5,49.0,43.7,39.0,78,47,24,30.17,29.83,22,3,0,0.00
2013-3-16,75.6,64.5,51.0,51.0,45.7,39.0,66,51,40,29.95,29.80,13,4,0,0.00
2013-3-17,50.8,42.3,38.4,40.0,38.7,36.0,96,87,65,30.04,29.78,13,3,0,0.15
2013-3-18,52.0,45.7,41.4,45.0,40.2,35.0,96,82,56,30.12,29.77,22,4,0,0.00
2013-3-19,53.2,43.6,33.4,36.0,27.1,17.0,94,58,26,30.32,30.11,14,3,0,0.00
2013-3-20,47.7,40.7,33.3,34.0,22.5,12.0,88,52,25,30.40,30.21,23,8,0,0.00
2013-3-21,44.5,34.5,29.9,31.0,21.2,13.0,94,62,30,30.22,30.01,9,2,0,0.48
2013-3-22,37.0,34.1,31.6,36.0,33.0,30.0,96,95,94,30.07,29.99,5,1,0,0.19
2013-3-23,44.2,39.8,35.5,40.0,36.5,33.0,95,88,79,30.07,29.81,7,1,0,0.00
2013-3-24,42.6,37.9,31.8,41.0,33.4,24.0,96,84,72,30.12,29.66,33,12,0,0.01
2013-3-25,35.9,30.9,26.7,26.0,22.3,19.0,76,71,61,30.38,30.10,28,12,0,0.00
2013-3-26,47.2,36.7,28.3,29.0,24.8,23.0,84,64,41,30.49,30.38,14,5,0,0.00
2013-3-27,58.8,43.0,27.1,34.0,28.5,25.0,95,62,31,30.47,30.30,11,2,0,0.00
2013-3-28,70.0,55.9,45.2,47.0,38.8,34.0,68,54,35,30.36,30.20,9,2,0,0.00
2013-3-29,68.4,57.6,48.7,52.0,48.8,44.0,93,73,55,30.27,30.18,13,1,0,0.00
2013-3-30,63.6,54.6,50.8,55.0,50.4,47.0,94,86,73,30.23,29.95,12,2,0,0.21
2013-3-31,69.0,57.5,47.5,53.0,47.6,40.0,97,73,41,30.03,29.91,13,2,0,0.23
2013-4-1,61.8,52.0,42.8,43.0,39.8,35.0,92,65,44,30.25,30.01,13,4,0,0.00
2013-4-2,47.7,40.2,36.7,35.0,32.2,27.0,90,74,51,30.38,30.25,9,2,0,0.07
2013-4-3,55.1,44.7,35.9,35.0,27.4,23.0,86,54,30,30.39,30.25,10,2,0,0.00
2013-4-4,58.7,49.7,41.5,35.0,30.3,26.0,72,48,38,30.26,30.09,13,4,0,0.00
2013-4-5,69.7,54.7,37.0,38.0,34.0,29.0,88,50,27,30.26,30.10,7,1,0,0.00
2013-4-6,76.1,63.9,51.0,47.0,42.5,36.0,63,47,33,30.10,29.86,13,4,0,0.00
2013-4-7,79.1,67.8,57.1,57.0,52.8,46.0,77,60,42,29.98,29.85,21,3,0,0.00
2013-4-8,77.8,67.8,59.2,61.0,58.1,55.0,91,72,55,29.90,29.81,11,3,0,0.01
2013-4-9,83.5,73.0,65.7,66.0,61.1,58.0,78,67,48,29.92,29.81,14,4,0,0.00
2013-4-10,83.9,69.4,43.0,68.0,60.8,41.0,95,76,53,29.86,29.64,17,6,0,0.65
2013-4-11,53.9,43.3,37.9,41.0,36.7,33.0,93,79,49,29.89,29.78,16,8,0,0.00
2013-4-12,61.0,49.1,36.3,40.0,34.7,32.0,89,61,35,30.10,29.87,16,4,0,0.00
2013-4-13,69.8,56.1,41.8,47.0,41.3,36.0,90,61,37,30.16,29.93,8,1,0,0.00
2013-4-14,78.8,64.5,50.5,58.0,51.5,46.0,86,66,34,29.94,29.64,15,4,0,0.00
2013-4-15,80.3,67.8,59.8,65.0,60.7,57.0,93,79,59,29.89,29.78,9,2,0,0.00
2013-4-16,88.0,72.3,59.4,69.0,62.5,57.0,96,74,45,30.02,29.87,13,2,0,0.00
2013-4-17,85.8,73.8,59.3,70.0,64.0,55.0,94,73,51,30.03,29.73,21,2,0,0.00
2013-4-18,76.7,59.1,42.5,68.0,53.1,33.0,95,81,69,29.96,29.61,21,9,0,0.21
2013-4-19,56.0,46.1,38.4,39.0,29.7,25.0,75,55,31,30.20,29.96,24,8,0,0.01
2013-4-20,67.5,52.6,37.0,43.0,38.3,34.0,96,63,31,30.32,30.19,8,1,0,0.00
2013-4-21,71.0,58.9,47.1,44.0,40.4,37.0,77,53,31,30.39,30.23,9,2,0,0.00
2013-4-22,75.4,60.0,43.8,47.0,42.9,38.0,95,58,28,30.29,30.02,10,1,0,0.00
2013-4-23,75.8,60.1,40.9,58.0,49.9,39.0,94,71,52,30.11,29.87,20,4,0,0.06
2013-4-24,56.9,46.2,38.6,39.0,34.8,30.0,96,68,37,30.37,30.09,16,6,0,0.43
2013-4-25,71.3,54.3,35.7,42.0,36.2,30.0,95,58,24,30.45,30.31,8,1,0,0.00
2013-4-26,59.1,50.7,48.1,48.0,46.1,41.0,95,85,53,30.46,30.27,8,1,0,0.23
2013-4-27,56.6,52.9,48.5,55.0,51.7,47.0,97,96,94,30.29,30.03,12,1,0,0.02
2013-4-28,69.8,57.1,51.4,56.0,51.6,49.0,94,83,57,30.09,29.96,11,3,0,0.00
2013-4-29,85.2,66.4,49.0,63.0,57.1,47.0,97,75,46,30.02,29.84,7,0,0,0.03
2013-4-30,86.0,72.8,59.2,61.0,55.8,48.0,92,59,28,29.95,29.88,14,1,0,0.00
2013-5-1,82.8,69.5,57.2,66.0,60.4,55.0,92,74,54,30.11,29.95,6,0,0,0.00
2013-5-2,65.2,57.1,42.4,63.0,55.2,41.0,96,93,86,30.21,30.08,18,5,0,0.25
2013-5-3,42.3,38.1,36.9,41.0,36.8,35.0,96,95,92,30.20,30.00,16,8,0,0.09
2013-5-4,49.0,42.5,36.9,42.0,38.4,35.0,94,86,69,30.06,29.95,8,1,0,0.02
2013-5-5,55.8,48.5,39.2,52.0,44.8,38.0,95,87,68,30.10,30.02,17,6,0,0.01
2013-5-6,68.3,60.2,54.0,55.0,53.1,51.0,94,78,58,30.07,30.00,15,6,0,0.00
2013-5-7,79.6,66.3,55.0,58.0,54.8,52.0,91,69,38,30.11,30.01,8,2,0,0.00
2013-5-8,84.1,69.1,54.1,63.0,57.5,53.0,96,70,41,30.11,29.99,4,0,0,0.00
2013-5-9,86.0,71.1,63.3,65.0,59.1,52.0,92,69,31,30.03,29.91,12,2,0,0.03
2013-5-10,73.7,65.8,59.2,62.0,59.1,54.0,95,80,60,30.08,29.91,15,4,0,0.00
2013-5-11,74.8,62.5,52.7,55.0,48.8,34.0,92,65,30,30.23,30.07,21,7,0,0.00
2013-5-12,68.3,57.3,44.7,46.0,37.9,30.0,86,52,26,30.34,30.20,10,2,0,0.00
2013-5-13,82.4,65.6,49.5,55.0,49.0,42.0,90,59,33,30.29,30.10,7,0,0,0.00
2013-5-14,92.6,75.4,56.9,61.0,55.2,51.0,92,55,25,30.10,29.98,10,2,0,0.00
2013-5-15,85.2,73.0,62.1,69.0,60.9,52.0,94,67,55,30.06,29.93,11,1,0,0.06
2013-5-16,66.7,64.1,62.0,65.0,62.1,59.0,97,93,83,30.00,29.91,7,0,0,0.19
2013-5-17,80.5,69.8,63.7,67.0,65.0,63.0,97,86,62,29.99,29.91,6,0,0,0.00
2013-5-18,86.1,73.8,65.0,75.0,69.5,64.0,96,87,67,30.02,29.89,6,0,0,0.00
2013-5-19,89.1,77.9,69.4,74.0,69.7,66.0,97,78,48,29.92,29.77,9,1,0,0.00
2013-5-20,79.8,75.2,63.9,73.0,69.6,62.0,93,83,75,29.90,29.77,25,1,0,0.46
2013-5-21,68.2,64.0,61.7,66.0,62.3,60.0,96,94,87,29.97,29.66,16,2,0,0.45
2013-5-22,79.0,69.0,59.3,62.0,59.1,57.0,91,73,51,29.96,29.80,9,2,0,0.00
2013-5-23,77.5,67.9,58.7,63.0,58.9,56.0,94,74,56,30.22,29.98,13,4,0,0.00
2013-5-24,76.7,64.7,55.1,56.0,49.9,45.0,90,62,35,30.39,30.22,8,1,0,0.00
2013-5-25,82.7,69.1,55.0,64.0,55.9,46.0,81,64,49,30.33,30.16,5,0,0,0.00
2013-5-26,87.7,75.0,61.4,70.0,64.7,58.0,90,72,53,30.19,30.05,9,1,0,0.00
2013-5-27,85.2,75.8,65.6,69.0,65.6,62.0,90,72,54,30.07,29.89,14,1,0,0.00
2013-5-28,86.1,77.3,72.1,70.0,66.4,65.0,82,70,55,29.97,29.83,15,2,0,0.00
2013-5-29,86.0,77.4,68.0,69.0,66.5,64.0,88,70,54,30.00,29.85,11,1,0,0.00
2013-5-30,81.7,73.9,65.5,71.0,68.9,63.0,96,84,66,29.96,29.82,26,2,0,0.28
2013-5-31,86.5,75.6,66.1,77.0,71.3,65.0,96,87,69,29.93,29.74,10,1,0,0.19
2013-6-1,76.7,70.0,65.0,74.0,66.9,60.0,97,90,78,29.99,29.73,19,2,0,1.06
2013-6-2,69.5,64.1,58.7,60.0,58.1,57.0,93,81,68,30.08,29.98,15,5,0,0.00
2013-6-3,77.0,67.2,58.8,61.0,58.5,56.0,92,75,52,30.13,29.99,6,1,0,0.00
2013-6-4,80.6,69.7,59.0,65.0,60.9,56.0,91,75,52,30.08,29.97,6,0,0,0.00
2013-6-5,82.3,71.7,63.0,68.0,65.0,62.0,96,80,59,30.02,29.86,16,2,0,0.00
2013-6-6,76.5,69.4,62.4,64.0,62.0,60.0,92,78,59,29.95,29.88,12,6,0,0.00
2013-6-7,76.6,68.1,59.6,61.0,57.4,53.0,89,71,44,30.00,29.92,16,4,0,0.00
2013-6-8,83.8,70.6,57.1,63.0,59.2,56.0,96,70,43,30.02,29.92,5,0,0,0.00
2013-6-9,79.1,71.4,64.3,71.0,64.6,58.0,93,80,63,29.97,29.86,7,0,0,0.05
2013-6-10,92.1,77.4,63.1,73.0,67.0,61.0,96,73,45,29.95,29.87,13,2,0,0.00
2013-6-11,97.8,83.8,68.5,74.0,70.0,66.0,96,67,36,30.03,29.94,7,1,0,0.00
2013-6-12,94.4,84.5,73.3,74.0,71.5,70.0,91,66,48,30.01,29.89,15,2,0,0.00
2013-6-13,87.0,81.1,74.2,73.0,69.3,66.0,84,68,52,30.02,29.91,14,4,0,0.00
2013-6-14,90.8,77.9,66.9,70.0,67.3,65.0,96,72,46,30.10,29.99,6,0,0,0.00
2013-6-15,90.4,78.7,67.5,73.0,67.7,63.0,92,70,48,30.08,29.97,6,0,0,0.00
2013-6-16,87.9,76.7,69.6,75.0,70.5,65.0,96,82,60,30.06,29.94,9,0,0,0.08
2013-6-17,78.9,72.1,66.6,73.0,68.7,65.0,95,89,79,30.01,29.90,12,1,0,0.66
2013-6-18,88.4,74.2,64.3,71.0,65.9,62.0,96,78,49,30.06,29.95,13,1,0,0.00
2013-6-19,91.2,77.4,63.9,69.0,66.3,63.0,95,71,44,30.09,30.01,7,0,0,0.00
2013-6-20,91.9,81.1,69.6,72.0,70.2,67.0,96,71,49,30.14,30.05,7,0,0,0.00
2013-6-21,92.9,82.8,72.2,77.0,72.9,68.0,88,73,57,30.14,30.04,6,0,0,0.00
2013-6-22,92.0,82.2,74.1,77.0,73.5,71.0,92,76,56,30.12,30.00,5,0,0,0.00
2013-6-23,94.3,82.5,71.1,76.0,72.5,69.0,93,73,49,30.07,29.97,6,0,0,0.00
2013-6-24,94.0,83.5,73.1,75.0,72.5,70.0,91,71,49,30.11,29.99,4,0,0,0.00
2013-6-25,93.0,83.0,74.3,76.0,72.6,71.0,89,72,52,30.02,29.88,8,1,0,0.00
2013-6-26,97.0,86.0,74.9,78.0,74.5,71.0,89,70,52,29.93,29.83,9,2,0,0.00
2013-6-27,99.8,87.2,76.8,79.0,76.1,72.0,93,71,43,29.95,29.86,11,1,0,0.00
2013-6-28,90.3,82.0,71.5,76.0,69.2,61.0,94,67,41,29.92,29.79,22,6,0,0.16
2013-6-29,85.8,78.1,69.8,63.0,59.2,54.0,74,54,37,29.86,29.76,22,8,0,0.00
2013-6-30,77.7,71.8,65.5,63.0,61.4,59.0,86,71,54,29.96,29.81,17,9,0,0.00
2013-7-1,79.4,71.5,64.9,62.0,60.2,57.0,87,69,50,30.04,29.95,15,7,0,0.01
2013-7-2,78.4,70.1,60.6,60.0,57.5,54.0,84,66,47,30.12,30.02,16,5,0,0.00
2013-7-3,86.6,72.5,59.6,62.0,58.4,56.0,95,65,37,30.16,30.05,6,0,0,0.00
2013-7-4,89.5,74.8,61.3,65.0,59.8,56.0,94,63,35,30.12,30.00,6,0,0,0.00
2013-7-5,91.0,76.4,62.3,69.0,63.4,58.0,94,67,33,30.10,29.99,7,0,0,0.00
2013-7-6,93.8,77.9,66.2,71.0,65.6,62.0,94,69,35,30.08,29.98,4,0,0,0.00
2013-7-7,96.0,82.2,68.3,73.0,67.9,64.0,95,65,36,30.10,30.02,5,0,0,0.00
2013-7-8,94.9,82.8,72.0,74.0,70.8,69.0,93,69,44,30.14,30.05,4,0,0,0.00
2013-7-9,98.8,87.2,75.2,75.0,71.5,70.0,86,62,40,30.12,29.97,9,1,0,0.00
2013-7-10,95.9,85.3,76.9,75.0,71.8,70.0,85,66,43,30.05,29.90,9,1,0,0.00
2013-7-11,94.5,82.4,73.6,73.0,67.7,59.0,92,65,31,30.04,29.96,11,2,0,0.00
2013-7-12,92.0,79.1,66.8,62.0,57.4,50.0,77,51,24,30.13,30.02,6,0,0,0.00
2013-7-13,88.3,76.1,62.2,64.0,60.6,56.0,92,62,34,30.11,30.00,8,1,0,0.00
2013-7-14,93.0,78.1,65.0,68.0,63.4,59.0,92,64,33,30.13,30.03,6,0,0,0.00
2013-7-15,91.2,78.9,70.9,73.0,70.2,67.0,93,76,51,30.23,30.11,5,0,0,0.00
2013-7-16,96.4,83.4,72.6,76.0,71.9,70.0,96,71,43,30.30,30.21,6,0,0,0.00
2013-7-17,98.6,85.0,72.8,75.0,70.2,66.0,95,65,36,30.35,30.20,6,0,0,0.00
2013-7-18,96.9,82.8,71.5,73.0,70.4,66.0,91,69,36,30.24,30.06,8,1,0,0.00
2013-7-19,98.7,79.3,71.2,73.0,70.3,68.0,96,77,38,30.09,29.94,18,1,0,0.64
2013-7-20,94.7,77.0,69.4,74.0,71.1,68.0,97,84,46,29.98,29.88,15,1,0,0.01
2013-7-21,87.4,74.8,70.8,77.0,72.3,69.0,97,92,68,30.00,29.88,9,0,0,0.86
2013-7-22,88.1,77.4,69.4,75.0,71.9,67.0,98,85,59,29.98,29.87,15,1,0,0.10
2013-7-23,96.5,77.4,68.5,81.0,71.6,67.0,96,83,54,29.95,29.81,16,2,0,1.12
2013-7-24,84.0,75.0,69.2,74.0,70.4,67.0,98,86,64,30.05,29.90,10,1,0,0.01
2013-7-25,83.8,75.0,65.4,66.0,63.9,62.0,91,70,51,30.15,30.05,5,0,0,0.00
2013-7-26,72.9,69.5,66.5,69.0,66.9,64.0,97,91,81,30.12,30.02,3,0,0,0.26
2013-7-27,81.7,72.8,66.2,69.0,64.4,59.0,98,77,46,30.07,29.99,10,3,0,0.01
2013-7-28,75.2,69.2,64.0,67.0,63.8,60.0,95,83,67,30.12,30.03,2,0,0,0.00
2013-7-29,87.3,75.9,65.8,73.0,68.1,63.0,93,78,61,30.17,30.07,6,0,0,0.00
2013-7-30,85.0,75.5,70.3,77.0,73.0,68.0,98,92,74,30.11,30.02,6,0,0,0.99
2013-7-31,87.8,80.2,74.6,78.0,74.8,72.0,98,84,62,30.08,29.98,16,2,0,0.01
2013-8-1,87.0,76.9,68.2,72.0,68.8,66.0,95,77,53,30.14,30.02,6,1,0,0.00
2013-8-2,90.2,79.2,68.9,76.0,72.0,66.0,95,79,61,30.05,29.93,5,0,0,0.00
2013-8-3,86.4,75.8,68.2,76.0,72.3,67.0,98,89,70,30.13,29.91,13,2,0,1.77
2013-8-4,80.5,74.5,71.9,75.0,72.7,71.0,97,94,81,30.18,30.08,7,0,0,0.24
2013-8-5,83.4,74.3,69.4,80.0,72.8,69.0,98,95,85,30.11,29.91,7,0,0,0.68
2013-8-6,85.1,75.3,69.7,79.0,73.5,69.0,98,94,81,30.02,29.87,13,1,0,0.09
2013-8-7,85.4,78.2,73.6,77.0,74.7,70.0,98,89,74,30.04,29.85,12,1,0,0.39
2013-8-8,83.8,75.9,72.0,76.0,73.9,71.0,99,93,75,30.02,29.90,8,0,0,0.72
2013-8-9,84.6,76.4,72.1,76.0,73.5,72.0,99,91,71,30.06,29.96,8,0,0,0.15
2013-8-10,80.2,74.1,70.2,75.0,72.1,70.0,98,93,80,30.16,30.05,13,0,0,1.28
2013-8-11,83.4,75.5,70.9,77.0,73.4,70.0,98,93,79,30.16,30.06,3,0,0,0.13
2013-8-12,86.2,76.7,73.1,78.0,74.0,70.0,98,91,74,30.09,29.98,13,1,0,0.05
2013-8-13,81.7,75.1,71.1,74.0,70.1,65.0,98,85,66,30.09,30.00,8,1,0,0.00
2013-8-14,77.5,69.6,63.6,65.0,59.2,55.0,91,71,47,30.20,30.09,8,1,0,0.00
2013-8-15,77.3,66.1,57.4,63.0,57.1,54.0,95,75,50,30.19,30.09,10,1,0,0.00
2013-8-16,74.7,66.8,59.7,63.0,60.3,58.0,97,81,58,30.17,30.10,9,2,0,0.00
2013-8-17,79.3,70.1,61.9,66.0,63.0,59.0,91,79,63,30.19,30.09,7,2,0,0.00
2013-8-18,84.1,72.7,64.2,68.0,65.9,63.0,96,80,54,30.20,30.10,6,0,0,0.00
2013-8-19,86.6,74.2,66.3,70.0,67.2,64.0,98,81,52,30.18,30.05,3,0,0,0.00
2013-8-20,89.1,76.4,66.2,72.0,68.0,64.0,98,78,46,30.15,30.06,0,0,0,0.00
2013-8-21,91.5,78.1,67.7,75.0,70.4,67.0,98,80,48,30.18,30.08,6,0,0,0.07
2013-8-22,89.3,79.8,70.2,76.0,71.9,68.0,98,79,50,30.17,30.04,0,0,0,0.00
2013-8-23,92.9,80.5,71.1,77.0,73.2,70.0,98,80,53,30.13,30.04,0,0,0,0.00
2013-8-24,92.3,81.2,72.5,76.0,72.6,70.0,96,77,50,30.20,30.10,0,0,0,0.00
2013-8-25,94.1,81.2,71.0,77.0,73.0,69.0,96,78,49,30.26,30.17,0,0,0,0.00
2013-8-26,93.2,81.7,73.0,75.0,73.2,71.0,96,77,52,30.26,30.13,1,0,0,0.00
2013-8-27,91.1,80.6,70.8,74.0,69.5,66.0,90,71,45,30.17,30.05,5,0,0,0.00
2013-8-28,94.3,81.1,70.6,77.0,72.1,68.0,96,76,48,30.12,30.03,0,0,0,0.00
2013-8-29,95.5,82.5,71.5,77.0,73.5,71.0,98,77,47,30.11,30.00,0,0,0,0.00
2013-8-30,97.0,84.5,74.0,78.0,74.3,71.0,93,73,45,30.04,29.91,8,0,0,0.00
2013-8-31,98.5,85.8,74.9,79.0,74.9,73.0,95,72,44,29.93,29.82,4,0,0,0.00
2013-9-1,85.0,79.6,74.8,77.0,74.4,71.0,94,84,69,29.92,29.81,8,0,0,0.04
2013-9-2,86.2,78.0,71.2,72.0,68.6,65.0,97,75,52,30.00,29.90,10,4,0,0.01
2013-9-3,86.0,74.8,64.0,70.0,63.9,58.0,94,72,39,30.11,30.00,10,1,0,0.00
2013-9-4,86.6,73.6,61.1,69.0,63.0,57.0,97,73,43,30.21,30.09,5,0,0,0.01
2013-9-5,87.2,74.0,63.1,67.0,64.8,62.0,97,76,45,30.24,30.14,5,0,0,0.00
2013-9-6,89.7,75.2,64.0,71.0,65.9,63.0,97,76,42,30.21,30.07,4,0,0,0.00
2013-9-7,94.0,79.2,67.5,73.0,68.4,65.0,97,73,39,30.10,29.97,5,0,0,0.00
2013-9-8,94.2,80.7,70.0,76.0,71.4,69.0,96,76,48,30.02,29.92,6,0,0,0.00
2013-9-9,97.6,83.6,73.3,77.0,71.9,67.0,96,71,38,30.04,29.95,7,0,0,0.00
2013-9-10,96.7,82.6,70.6,75.0,70.3,63.0,96,71,33,30.16,30.02,7,0,0,0.00
2013-9-11,92.8,79.9,71.6,75.0,71.8,68.0,97,78,46,30.18,30.09,5,0,0,0.00
2013-9-12,88.3,77.2,70.8,75.0,72.0,69.0,96,84,60,30.11,30.00,6,0,0,0.26
2013-9-13,77.8,71.2,64.2,71.0,57.7,53.0,88,63,43,30.14,30.04,11,2,0,0.00
2013-9-14,79.8,67.1,56.4,57.0,53.1,50.0,84,63,38,30.18,30.06,5,0,0,0.00
2013-9-15,86.5,70.5,55.9,64.0,57.9,50.0,95,67,43,30.14,30.06,5,0,0,0.00
2013-9-16,76.5,70.8,66.6,69.0,64.5,60.0,91,81,68,30.24,30.10,6,0,0,0.00
2013-9-17,87.5,74.2,64.4,68.0,65.2,62.0,91,75,49,30.23,30.07,1,0,0,0.00
2013-9-18,86.4,76.3,69.8,73.0,69.6,67.0,91,80,62,30.10,30.00,1,0,0,0.00
2013-9-19,91.4,76.8,71.2,74.0,70.2,68.0,91,81,56,30.06,29.94,12,0,0,0.00
2013-9-20,73.2,68.5,62.8,71.0,66.6,59.0,97,93,85,29.99,29.91,17,3,0,0.60
2013-9-21,73.8,63.9,54.4,59.0,53.2,48.0,91,71,41,30.05,29.95,15,4,0,0.00
2013-9-22,78.3,63.5,51.7,59.0,54.0,51.0,97,75,42,30.07,29.95,6,1,0,0.01
2013-9-23,80.0,66.6,54.0,62.0,57.5,53.0,98,76,48,30.03,29.91,4,0,0,0.01
2013-9-24,81.5,69.3,59.2,66.0,60.6,58.0,98,76,48,29.96,29.83,9,1,0,0.00
2013-9-25,78.1,68.2,59.6,66.0,61.1,58.0,94,79,54,29.91,29.85,9,1,0,0.00
2013-9-26,86.4,71.8,61.3,70.0,64.8,61.0,98,81,52,30.03,29.91,0,0,0,0.01
2013-9-27,86.5,74.7,65.2,70.0,65.8,64.0,96,75,53,30.10,29.99,7,0,0,0.00
2013-9-28,86.7,73.3,66.3,69.0,66.6,63.0,97,81,56,30.06,29.96,15,1,0,0.24
2013-9-29,71.0,66.5,61.0,69.0,64.5,60.0,97,93,83,30.09,29.99,11,3,0,0.05
2013-9-30,80.1,70.1,65.2,69.0,66.1,64.0,97,88,66,30.01,29.92,2,0,0,0.00
2013-10-1,85.9,75.8,69.0,73.0,70.0,67.0,97,83,61,30.05,29.96,2,0,0,0.00
2013-10-2,82.3,72.3,67.6,73.0,69.4,67.0,98,91,73,30.10,29.99,7,0,0,0.22
2013-10-3,84.1,73.5,66.4,74.0,69.5,66.0,98,88,66,30.04,29.92,1,0,0,0.01
2013-10-4,87.7,76.4,68.6,74.0,69.8,68.0,97,81,53,30.01,29.92,9,0,0,0.00
2013-10-5,77.2,65.5,50.6,73.0,63.7,50.0,97,94,83,30.06,29.92,19,2,0,0.65
2013-10-6,62.3,55.3,48.6,52.0,47.3,45.0,97,76,55,30.05,29.98,14,3,0,0.01
2013-10-7,68.2,58.5,50.3,56.0,49.9,47.0,94,75,50,30.21,30.05,15,5,0,0.00
2013-10-8,73.0,59.9,49.2,56.0,51.4,48.0,98,77,45,30.26,30.14,6,0,0,0.00
2013-10-9,76.2,60.9,50.1,61.0,54.4,49.0,98,82,49,30.21,30.12,4,0,0,0.01
2013-10-10,78.3,63.8,53.8,66.0,58.2,53.0,98,84,49,30.20,30.03,4,0,0,0.01
2013-10-11,79.9,67.2,57.2,66.0,61.0,56.0,98,82,57,30.07,29.95,7,1,0,0.01
2013-10-12,75.3,67.3,62.2,66.0,62.7,59.0,96,85,71,30.22,29.98,13,3,0,0.24
2013-10-13,74.7,64.7,57.8,58.0,51.4,47.0,90,64,43,30.39,30.22,7,1,0,0.00
2013-10-14,70.6,61.7,52.2,62.0,56.4,48.0,95,83,61,30.33,30.08,3,0,0,0.02
2013-10-15,68.1,64.0,56.5,67.0,62.4,52.0,97,94,85,30.08,29.96,13,2,0,0.25
2013-10-16,63.4,55.6,49.6,52.0,48.9,45.0,96,79,56,30.14,30.03,14,5,0,0.27
2013-10-17,65.6,55.1,47.2,51.0,47.8,45.0,93,78,52,30.11,30.03,12,2,0,0.00
2013-10-18,65.8,53.8,44.9,52.0,48.9,44.0,97,85,56,30.14,30.02,8,2,0,0.11
2013-10-19,57.7,49.2,42.5,47.0,41.2,38.0,96,76,48,30.18,30.06,17,5,0,0.09
2013-10-20,69.8,54.2,41.8,47.0,43.3,39.0,94,69,42,30.12,29.99,6,0,0,0.00
2013-10-21,59.9,52.0,46.3,51.0,48.5,44.0,94,88,71,30.15,30.03,7,2,0,0.14
2013-10-22,67.6,53.1,40.9,48.0,44.3,39.0,100,75,48,30.16,29.95,15,4,0,0.01
2013-10-23,58.9,48.6,40.2,47.0,39.4,36.0,89,72,45,30.25,30.08,16,4,0,0.00
2013-10-24,53.1,47.0,41.9,45.0,37.4,30.0,96,72,44,30.50,30.17,16,5,0,0.00
2013-10-25,56.2,44.3,35.0,38.0,32.6,27.0,96,67,37,30.61,30.34,6,1,0,0.00
2013-10-26,67.7,53.6,41.0,57.0,45.5,33.0,87,74,65,30.33,30.13,8,1,0,0.00
2013-10-27,63.2,53.7,48.7,53.0,44.3,38.0,92,72,53,30.18,30.07,11,1,0,0.00
2013-10-28,68.2,54.6,46.4,58.0,51.2,45.0,97,89,63,30.27,30.11,4,0,0,0.00
2013-10-29,64.5,60.1,54.1,64.0,59.2,53.0,97,97,94,30.27,30.10,6,0,0,0.35
2013-10-30,71.4,66.6,62.3,66.0,64.0,61.0,96,91,82,30.12,29.91,13,1,0,0.39
2013-10-31,76.4,63.9,53.5,69.0,59.3,46.0,98,86,40,29.91,29.48,24,4,0,0.28
2013-11-1,68.4,57.1,49.0,49.0,45.5,41.0,90,68,40,30.02,29.80,15,4,0,0.00
2013-11-2,55.4,49.7,43.4,45.0,41.1,38.0,90,73,54,30.29,30.01,21,8,0,0.00
2013-11-3,61.7,49.2,38.8,48.0,40.7,38.0,97,75,46,30.37,30.18,8,1,0,0.00
2013-11-4,57.1,52.2,48.3,51.0,46.3,41.0,96,80,67,30.30,30.16,11,2,0,0.13
2013-11-5,58.9,55.3,51.7,58.0,54.0,51.0,97,95,90,30.28,30.09,8,1,0,0.43
2013-11-6,61.1,51.0,41.8,60.0,48.5,37.0,97,91,78,30.39,29.99,19,8,0,0.51
2013-11-7,59.7,46.7,35.5,41.0,37.1,34.0,94,72,42,30.53,30.39,18,3,0,0.00
2013-11-8,63.1,49.4,38.3,45.0,39.4,37.0,97,72,39,30.44,30.20,15,2,0,0.00
2013-11-9,65.0,54.0,45.2,49.0,44.3,39.0,88,71,52,30.32,30.20,6,1,0,0.00
2013-11-10,66.7,55.0,46.8,49.0,43.5,36.0,94,69,34,30.46,30.32,6,1,0,0.00
2013-11-11,67.9,54.9,42.3,53.0,46.5,41.0,96,76,51,30.42,30.23,21,3,0,0.00
2013-11-12,46.1,36.5,30.2,41.0,23.1,13.0,85,61,34,30.79,30.43,22,10,0,0.00
2013-11-13,49.5,35.9,24.7,26.0,21.1,17.0,92,59,30,30.79,30.46,7,2,0,0.00
2013-11-14,58.2,44.7,31.3,32.0,24.8,19.0,77,49,26,30.45,30.16,11,2,0,0.00
2013-11-15,53.9,49.1,44.1,50.0,42.2,33.0,89,77,59,30.16,30.00,9,2,0,0.00
2013-11-16,68.1,62.8,53.2,65.0,58.2,50.0,94,85,74,30.01,29.72,19,4,0,0.53
2013-11-17,79.6,68.8,55.7,67.0,48.7,23.0,95,55,25,30.09,29.62,30,8,0,0.00
2013-11-18,61.5,52.2,42.9,40.0,32.9,24.0,82,51,24,30.35,30.10,13,3,0,0.00
2013-11-19,56.5,45.9,38.0,39.0,32.6,28.0,90,63,34,30.39,30.22,9,2,0,0.00
2013-11-20,60.9,48.0,38.1,37.0,31.9,27.0,74,56,28,30.24,30.04,14,3,0,0.00
2013-11-21,55.6,52.4,47.6,55.0,48.4,37.0,96,87,55,30.25,30.10,8,1,0,0.89
2013-11-22,53.8,41.0,34.7,53.0,38.6,32.0,97,91,87,30.57,30.25,23,11,0,0.00
2013-11-23,40.9,35.0,25.5,33.0,24.0,12.0,92,66,42,30.76,30.57,21,11,0,0.01
2013-11-24,30.6,25.2,18.1,14.0,12.4,11.0,77,60,44,30.80,30.54,10,3,0,0.00
2013-11-25,33.8,31.5,29.4,32.0,25.1,15.0,93,78,54,30.52,30.27,7,1,0,0.03
2013-11-26,46.0,37.0,29.9,32.0,29.2,19.0,92,74,57,30.35,30.13,24,9,0,0.00
2013-11-27,35.5,28.8,22.1,24.0,15.3,13.0,76,58,40,30.49,30.36,23,7,0,0.00
2013-11-28,53.9,39.2,26.4,36.0,23.5,15.0,85,56,35,30.53,30.39,7,1,0,0.00
2013-11-29,54.4,41.7,31.6,34.0,32.4,30.0,94,72,45,30.62,30.45,6,2,0,0.00
2013-11-30,59.0,46.8,36.1,44.0,38.2,31.0,89,73,53,30.45,30.21,9,1,0,0.00
2013-12-1,58.7,52.5,46.7,51.0,47.2,42.0,92,82,71,30.23,29.95,4,0,0,0.00
2013-12-2,60.1,50.9,43.6,51.0,46.9,42.0,96,87,69,29.94,29.73,5,0,0,0.00
2013-12-3,63.9,54.4,44.0,55.0,51.5,42.0,96,90,73,29.77,29.64,10,1,0,0.00
2013-12-4,68.7,57.6,43.6,58.0,51.6,39.0,97,82,55,29.95,29.65,16,4,0,0.00
2013-12-5,43.2,30.7,23.8,39.0,27.4,22.0,93,87,76,30.34,29.95,20,5,0,0.63
2013-12-6,23.8,21.2,18.8,22.0,19.5,16.0,94,93,88,30.65,30.30,0,0,0,0.20
2013-12-7,21.5,17.6,11.4,17.0,13.4,8.0,88,83,78,30.78,30.48,6,0,0,0.05
2013-12-8,29.2,24.0,18.9,28.0,21.8,14.0,94,91,80,30.47,30.14,5,1,0,0.00
2013-12-9,31.1,28.3,24.6,29.0,23.0,17.0,93,80,68,30.42,30.26,14,7,0,0.00
2013-12-10,36.1,27.0,19.0,28.0,22.0,16.0,91,82,62,30.53,30.38,13,3,0,0.00
2013-12-11,38.1,28.9,21.6,28.0,22.6,16.0,95,79,54,30.73,30.42,13,4,0,0.00
2013-12-12,42.8,29.2,18.4,25.0,19.6,15.0,92,70,41,30.72,30.42,7,1,0,0.00
2013-12-13,36.4,32.8,28.3,33.0,29.4,23.0,95,87,66,30.41,29.98,9,2,0,0.73
2013-12-14,37.0,33.9,30.3,35.0,31.7,27.0,96,91,85,30.29,29.92,24,9,0,0.08
2013-12-15,48.1,35.9,26.3,31.0,27.8,23.0,89,74,52,30.35,30.20,19,4,0,0.00
2013-12-16,63.8,48.1,36.4,40.0,33.8,31.0,91,61,33,30.21,30.11,8,1,0,0.00
2013-12-17,53.9,43.4,33.1,38.0,33.6,31.0,94,71,45,30.39,30.19,18,3,0,0.00
2013-12-18,59.8,45.2,31.7,42.0,35.1,30.0,93,71,42,30.38,30.07,9,2,0,0.00
2013-12-19,58.7,53.9,46.7,54.0,47.3,41.0,85,78,68,30.06,29.84,13,3,0,0.00
2013-12-20,69.7,56.9,41.6,62.0,53.0,40.0,94,87,76,29.91,29.82,17,4,0,0.19
2013-12-21,42.8,39.9,38.1,42.0,38.9,37.0,97,96,94,29.83,29.58,15,4,0,2.13
2013-12-22,41.1,35.1,30.3,40.0,32.2,25.0,96,89,79,30.40,29.76,19,7,0,0.00
2013-12-23,33.8,27.8,20.5,25.0,21.5,17.0,92,78,60,30.67,30.40,18,9,0,0.00
2013-12-24,33.9,23.9,15.7,20.0,16.3,12.0,89,74,52,30.71,30.47,12,4,0,0.00
2013-12-25,45.8,35.1,23.9,35.0,29.0,20.0,89,79,64,30.47,30.38,12,2,0,0.00
2013-12-26,51.9,38.2,28.9,38.0,29.8,27.0,96,75,41,30.51,30.40,5,1,0,0.00
2013-12-27,58.4,41.2,28.8,39.0,31.1,27.0,94,71,36,30.53,30.40,2,0,0,0.00
2013-12-28,50.0,40.0,28.9,38.0,33.0,27.0,95,77,59,30.40,30.04,5,0,0,0.00
2013-12-29,43.6,34.5,23.8,38.0,29.0,17.0,93,80,71,30.36,30.01,22,8,0,0.00
2013-12-30,34.9,26.4,18.5,24.0,17.1,10.0,86,69,52,30.43,30.34,15,3,0,0.00
2013-12-31,53.6,37.8,26.1,30.0,25.2,21.0,88,63,32,30.51,30.30,9,2,0,0.00
2014-1-1,53.9,41.7,31.7,37.0,31.6,27.0,86,69,44,30.30,30.00,20,2,0,0.00
2014-1-2,36.5,23.2,17.2,28.0,15.3,8.0,83,72,59,30.59,30.08,27,13,0,0.00